{"data":{"norad_id":59602,"epoch":"2026-09-21T17:57:09.664992Z","epoch_age_seconds":60455,"freshness":"FRESH","line1":"1 59602U 24080B   26264.74802853  .00001537  00000+0  65362-4 0  9994","line2":"2 59602  43.0039   7.5230 0001223 259.8156 100.2558 15.27582308134554","mean_motion":15.27582308,"eccentricity":0.0001223,"inclination_deg":43.0039,"raan_deg":7.523,"arg_perigee_deg":259.8156,"mean_anomaly_deg":100.2558,"bstar":6.5362e-5,"rev_number":13455,"period_min":94.266606287509,"perigee_km":482.20306285172,"apogee_km":483.88130728039,"semimajor_km":6861.1791850661,"source":"CELESTRAK","updated_at":"2026-09-22T09:00:49.008709Z"}}